GW0194 Weather Reports


Display with metric or nautical units.
time (UTC)temp
F
wind
direction
speed
MPH
gust
MPH
rain 1hr
in
rain 24hr
in
rain mn
in
humidity
%
barometer
mb
20240525213016 63 37 1.0 7.0 0.00 0.00 0.00 38 1005.9
20240525211518 64 333 5.0 19.0 0.00 0.00 0.00 35 1006.6
20240525210018 70 217 0.0 6.0 0.00 0.00 0.00 38 1005.9
20240525204514 70 18 1.0 10.0 0.00 0.00 0.00 38 1004.7
20240525203015 70 41 4.0 8.0 0.00 0.00 0.00 39 1004.6
20240525201516 70 41 2.0 7.0 0.00 0.00 0.00 38 1005.1
20240525200016 68 21 5.0 8.0 0.00 0.00 0.00 40 1005.2
20240525194517 69 347 1.0 7.0 0.00 0.00 0.00 38 1005.6
20240525193016 68 38 1.0 7.0 0.00 0.00 0.00 40 1005.1
20240525191514 67 19 2.0 9.0 0.00 0.00 0.00 36 1005.1
20240525190022 67 49 2.0 10.0 0.00 0.00 0.00 42 1005.3
20240525184517 67 59 3.0 10.0 0.00 0.00 0.00 42 1005.3
20240525183015 66 48 6.0 12.0 0.00 0.00 0.00 44 1005.3
20240525181517 65 78 3.0 9.0 0.00 0.00 0.00 43 1005.6
20240525180016 65 39 3.0 11.0 0.00 0.00 0.00 42 1005.7
20240525174516 64 32 3.0 8.0 0.00 0.00 0.00 43 1005.7
20240525173015 63 32 4.0 10.0 0.00 0.00 0.00 42 1006.0
20240525171515 63 54 4.0 9.0 0.00 0.00 0.00 42 1006.1
20240525170017 63 29 2.0 6.0 0.00 0.00 0.00 44 1006.4
20240525164521 65 216 1.0 6.0 0.00 0.00 0.00 40 1006.5
20240525163015 63 26 2.0 4.0 0.00 0.00 0.00 47 1006.5
20240525161515 62 345 1.0 8.0 0.00 0.00 0.00 44 1006.6
20240525160022 62 30 2.0 6.0 0.00 0.00 0.00 46 1006.9
20240525154515 61 40 4.0 8.0 0.00 0.00 0.00 43 1007.0
20240525153028 61 30 1.0 6.0 0.00 0.00 0.00 44 1007.2
20240525151515 61 18 3.0 9.0 0.00 0.00 0.00 44 1007.3
20240525150018 60 41 5.0 8.0 0.00 0.00 0.00 45 1007.2
20240525144519 59 14 2.0 7.0 0.00 0.00 0.00 46 1007.5
20240525143018 59 26 2.0 7.0 0.00 0.00 0.00 47 1007.5
20240525141516 59 32 1.0 3.0 0.00 0.00 0.00 45 1007.5
20240525140021 59 0 0.0 2.0 0.00 0.00 0.00 45 1007.7
20240525134515 58 0 0.0 1.0 0.00 0.00 0.00 46 1007.7
20240525133014 55 0 0.0 1.0 0.00 0.00 0.00 50 1007.7
20240525131517 53 96 0.0 1.0 0.00 0.00 0.00 58 1007.7
20240525130017 50 89 0.0 2.0 0.00 0.00 0.00 64 1007.7
20240525124533 47 0 0.0 1.0 0.00 0.00 0.00 63 1007.5
20240525123017 44 0 0.0 1.0 0.00 0.00 0.00 66 1007.6
20240525121515 41 0 0.0 0.0 0.00 0.00 0.00 72 1007.5
20240525120035 42 0 0.0 0.0 0.00 0.00 0.00 69 1007.5
20240525114533 43 0 0.0 1.0 0.00 0.00 0.00 67 1007.6
20240525113017 43 0 0.0 1.0 0.00 0.00 0.00 64 1007.5
20240525111515 44 0 0.0 1.0 0.00 0.00 0.00 64 1007.7
20240525110018 43 0 0.0 1.0 0.00 0.00 0.00 65 1007.7
20240525104517 40 0 0.0 0.0 0.00 0.00 0.00 71 1007.8
20240525103017 42 0 0.0 1.0 0.00 0.00 0.00 69 1007.6
20240525101515 44 0 0.0 1.0 0.00 0.00 0.00 65 1007.7
20240525100017 44 0 0.0 1.0 0.00 0.00 0.00 66 1007.8
20240525094513 44 0 0.0 1.0 0.00 0.00 0.00 66 1007.8
20240525093014 44 0 0.0 1.0 0.00 0.00 0.00 66 1007.8
20240525091517 44 0 0.0 1.0 0.00 0.00 0.00 65 1008.0
20240525090022 44 0 0.0 0.0 0.00 0.00 0.00 68 1008.2
20240525084516 44 0 0.0 1.0 0.00 0.00 0.00 68 1008.4
20240525083021 44 0 0.0 0.0 0.00 0.00 0.00 66 1008.4
20240525081517 47 0 0.0 1.0 0.00 0.00 0.00 61 1008.7
20240525080023 48 0 0.0 1.0 0.00 0.00 0.00 62 1008.8
20240525074533 48 0 0.0 0.0 0.00 0.00 0.00 62 1009.1
20240525073023 49 0 0.0 0.0 0.00 0.00 0.00 60 1009.3
20240525071527 49 0 0.0 0.0 0.00 0.00 0.00 61 1009.7
20240525070022 49 0 0.0 1.0 0.00 0.00 0.00 61 1010.0
20240525064523 50 0 0.0 1.0 0.00 0.00 0.00 59 1010.3
20240525063022 52 0 0.0 1.0 0.00 0.00 0.00 52 1010.4
20240525061524 52 0 0.0 0.0 0.00 0.00 0.00 53 1010.7
20240525060023 52 0 0.0 0.0 0.00 0.00 0.00 52 1010.8
20240525054520 52 0 0.0 1.0 0.00 0.00 0.00 51 1010.8
20240525053022 53 119 0.0 1.0 0.00 0.00 0.00 54 1010.8
20240525051523 54 0 0.0 1.0 0.00 0.00 0.00 46 1011.2
20240525050023 54 0 0.0 0.0 0.00 0.00 0.00 47 1011.4
20240525044518 54 122 1.0 3.0 0.00 0.00 0.00 48 1011.7
20240525043027 54 0 0.0 0.0 0.00 0.00 0.00 44 1011.6
20240525041525 54 0 0.0 1.0 0.00 0.00 0.00 45 1011.8
20240525040042 54 0 0.0 1.0 0.00 0.00 0.00 43 1011.7
20240525034528 56 0 0.0 0.0 0.00 0.00 0.00 39 1011.4
20240525033032 57 0 0.0 0.0 0.00 0.00 0.00 37 1011.2
20240525031531 59 0 0.0 1.0 0.00 0.00 0.00 35 1011.2
20240525030024 60 299 0.0 1.0 0.00 0.00 0.00 32 1011.1
20240525024529 62 0 0.0 2.0 0.00 0.00 0.00 31 1011.0
20240525023040 63 217 0.0 7.0 0.00 0.00 0.00 29 1011.1
20240525021528 64 195 1.0 12.0 0.00 0.00 0.00 27 1011.0
20240525020026 66 281 4.0 16.0 0.00 0.00 0.00 25 1010.8
20240525014523 67 260 2.0 14.0 0.00 0.00 0.00 24 1010.7
20240525013024 68 317 1.0 9.0 0.00 0.00 0.00 21 1010.5
20240525011523 70 274 0.0 7.0 0.00 0.00 0.00 20 1010.4
20240525010024 71 300 3.0 8.0 0.00 0.00 0.00 18 1010.2
20240525004525 71 1 2.0 7.0 0.00 0.00 0.00 17 1010.1
20240525003021 72 0 2.0 9.0 0.00 0.00 0.00 18 1010.0
20240525001518 73 146 2.0 5.0 0.00 0.00 0.00 18 1009.9
20240525000041 73 234 2.0 7.0 0.00 0.00 0.00 18 1010.0
20240524234518 73 313 2.0 9.0 0.00 0.00 0.00 18 1010.0
20240524233017 72 179 1.0 4.0 0.00 0.00 0.00 21 1010.3
20240524231515 71 126 6.0 12.0 0.00 0.00 0.00 21 1010.1
20240524230019 71 0 0.0 7.0 0.00 0.00 0.00 23 1010.3
20240524224521 69 94 2.0 6.0 0.00 0.00 0.00 30 1010.3
20240524223024 70 116 2.0 10.0 0.00 0.00 0.00 29 1010.4
20240524221520 69 108 5.0 7.0 0.00 0.00 0.00 27 1010.6
20240524220022 68 88 3.0 7.0 0.00 0.00 0.00 25 1010.6
20240524214515 67 81 3.0 9.0 0.00 0.00 0.00 26 1010.8